Wind_Speed
3 3 3 3 3 2 2 1 1 0 0 0 1 1 3 4 3 2 2 3 3 5 5 5 5 4 3 3 4 3 3 3 2 1 1 1 1 2 1 1 1 1 2 1 2 2 1 1 1 1 2 1 1 3 5 5 2 0 0 1 0 1 2 1 5 5 3 2 2 1 2 5 5 3 3 3 2 2 5 4 3 3 4 3 5 9 6
3 3 4 4 3 2 1 2 2 3 4 4 5 5 6 8 8 7 3 2 2 3 3 2 2 2 2 3 4 3 2 3 2 1 1 1 2 2 1 1 1 1 2 2 2 2 1 2 1 1 2 2 1 3 4 4 3 2 1 1 3 2 0 2 4 6 5 4 4 3 2 2 2 2 2 3 4 2 1 1 2 1 4 5 7 9 8
4 5 5 3 3 3 4 5 5 5 5 5 4 3 3 4 6 10 9 1 2 4 6 7 5 3 3 4 2 2 3 3 3 2 2 2 2 2 1 2 2 2 2 2 1 0 1 0 1 1 1 2 1 2 3 2 3 3 2 1 3 1 0 2 4 4 6 6 6 6 6 6 2 2 3 4 4 3 1 0 1 2 4 5 6 9 14
6 5 4 4 5 6 5 3 3 3 3 2 2 2 1 2 2 4 8 9 10 12 10 9 8 5 4 4 1 1 2 1 2 3 2 2 2 3 2 3 2 2 2 2 2 1 2 2 1 1 1 2 1 2 2 1 2 2 1 2 2 2 1 2 5 4 5 7 9 10 7 7 7 4 4 4 2 3 2 1 2 5 8 6 6 11 19
6 5 5 6 6 3 2 2 2 3 3 2 1 2 1 2 1 1 3 7 12 14 11 9 8 5 4 3 1 2 1 1 1 2 1 2 2 2 2 2 2 1 2 2 0 1 2 3 1 1 1 3 1 1 1 2 2 1 1 3 3 3 1 2 5 7 9 9 12 13 9 7 9 5 1 3 4 4 3 2 4 6 8 9 12 16 20
6 6 6 4 3 2 2 2 2 3 2 3 1 2 3 1 2 3 3 2 4 6 5 8 11 7 3 3 2 1 1 1 1 1 1 2 1 1 1 2 2 1 2 3 1 0 2 1 1 1 1 3 2 2 1 1 2 1 2 3 3 4 2 3 4 6 10 10 13 13 8 6 4 1 1 1 4 3 1 5 8 5 5 11 18 20 19
6 5 3 3 2 1 2 2 2 3 2 3 3 2 2 4 6 6 6 5 5 6 6 9 12 8 4 3 1 3 4 3 2 2 1 1 0 1 1 2 2 1 2 4 2 1 1 1 3 2 2 2 0 1 0 0 1 2 2 3 4 2 2 2 2 7 10 11 12 9 5 5 2 2 2 2 3 6 6 7 8 7 10 14 17 19 17
4 3 2 3 2 1 2 2 2 2 2 2 3 3 2 6 5 6 10 11 9 8 6 6 7 5 3 2 1 3 6 4 2 2 2 1 1 0 1 2 2 2 3 4 3 4 5 3 3 4 3 2 1 2 2 2 1 3 2 1 2 1 2 1 2 5 9 8 7 5 4 5 4 3 3 4 4 6 5 5 6 7 11 14 13 14 13
3 3 3 2 2 2 2 2 2 1 1 1 1 1 3 4 4 7 12 9 5 3 2 3 4 2 1 2 3 3 4 5 4 3 1 2 2 1 3 4 3 1 2 3 3 3 4 4 3 4 4 3 3 2 2 4 1 3 1 0 2 2 2 2 5 4 7 3 4 8 3 2 3 3 4 4 4 4 4 5 6 10 14 15 11 9 7
4 4 4 4 4 4 3 3 3 2 2 1 0 1 3 4 8 10 8 4 2 1 1 2 4 3 2 3 4 3 3 6 6 3 0 2 3 3 4 6 4 1 1 3 2 1 2 2 3 3 4 4 3 2 3 4 3 1 3 1 2 2 1 2 3 3 6 1 8 13 4 6 1 4 4 4 4 6 6 7 9 8 6 6 6 6 7
6 6 5 5 5 4 3 3 2 2 2 1 1 2 3 6 10 8 5 4 1 0 1 1 3 3 3 4 4 3 4 6 5 3 1 3 4 3 3 4 3 1 3 2 1 2 2 2 2 2 2 2 2 3 3 4 4 4 4 2 0 2 2 0 1 2 5 7 10 9 3 4 3 3 7 4 3 6 9 13 13 5 3 2 6 8 12
7 6 6 5 5 4 3 2 1 1 1 1 2 4 4 4 6 4 3 4 2 1 1 2 2 3 5 6 5 3 5 6 5 4 4 4 5 4 3 3 1 0 2 2 3 1 2 3 2 2 3 3 1 1 1 2 3 4 5 4 2 2 2 1 2 2 4 7 9 7 4 2 2 5 5 1 4 6 10 12 8 4 2 5 10 12 17
6 6 5 4 4 3 2 2 1 0 1 1 2 4 3 3 4 3 2 5 3 2 2 2 2 4 7 7 7 6 7 8 6 4 5 4 5 5 3 2 1 0 1 3 1 3 4 3 3 2 2 4 3 1 0 1 1 2 5 5 3 2 2 1 1 1 3 5 6 4 4 2 2 3 3 4 4 6 9 12 4 5 1 8 11 15 20
5 4 3 2 2 2 1 1 1 1 1 2 3 3 3 4 4 4 2 3 2 3 5 4 2 6 9 8 9 9 7 7 5 4 4 4 4 5 4 2 1 0 2 1 2 4 2 2 4 3 3 4 5 2 1 0 0 1 3 4 4 4 3 1 2 1 1 2 2 3 4 3 1 3 3 2 4 5 7 10 6 3 1 8 12 14 20
3 2 1 1 0 0 1 1 2 2 2 2 4 4 4 5 5 5 4 3 4 4 7 5 5 10 11 9 9 8 5 4 4 3 3 4 4 5 3 3 3 0 1 1 2 3 1 1 2 3 3 2 2 3 2 1 1 1 3 4 4 3 1 1 1 1 2 2 3 3 5 4 3 5 5 4 8 7 5 4 5 3 1 12 14 13 20
2 1 1 0 1 2 2 2 3 3 3 3 4 5 5 6 6 5 5 5 5 4 8 8 8 13 11 7 8 6 3 4 4 2 1 1 4 6 4 3 3 1 1 2 2 4 4 1 2 1 1 2 2 3 3 2 2 1 2 4 6 5 3 4 3 2 2 2 2 3 4 4 4 6 5 7 12 8 4 2 4 4 5 18 19 17 22
4 3 3 2 2 2 3 3 3 4 4 4 5 6 6 6 6 5 6 6 4 5 9 12 12 13 9 5 5 5 4 5 4 2 1 2 4 6 5 4 5 1 1 1 2 4 5 2 2 2 2 2 3 2 3 2 3 4 3 3 4 5 4 3 2 2 1 2 1 3 5 5 4 6 5 11 13 7 2 6 6 5 15 24 21 20 22
6 6 4 4 3 3 3 3 3 3 4 5 5 6 6 5 6 5 6 7 3 5 11 15 14 11 7 3 4 6 6 6 4 3 2 1 4 6 5 6 6 2 1 1 2 4 4 1 1 2 2 2 1 1 2 0 2 4 2 2 2 2 2 1 1 2 3 4 3 4 5 5 3 4 8 13 11 3 3 8 11 15 24 26 22 21 21
8 7 6 5 5 4 4 3 3 3 3 4 4 5 6 5 5 5 6 6 4 7 14 15 12 9 7 5 6 7 7 5 4 4 3 1 3 6 5 5 5 2 1 2 3 3 3 1 1 3 2 3 1 1 2 2 3 3 1 1 1 1 1 1 0 2 2 3 4 4 5 4 3 6 8 8 7 4 4 10 16 20 25 24 22 22 20
9 8 7 7 6 6 6 6 5 5 4 4 4 5 5 5 5 6 6 6 5 13 17 14 10 8 8 6 6 6 6 5 5 5 4 3 7 8 4 2 4 3 2 2 1 1 2 2 3 2 2 3 1 2 1 3 3 2 2 2 3 3 1 2 3 2 0 1 1 4 5 4 1 6 4 3 2 6 10 14 18 20 21 21 22 22 20
10 10 9 9 8 8 8 8 8 7 6 5 5 5 6 6 7 7 7 6 6 12 15 12 10 9 8 6 5 5 5 4 5 5 3 5 10 8 2 3 6 5 2 3 3 2 2 3 2 1 2 1 0 1 2 2 4 3 2 3 3 3 4 2 3 2 1 2 2 2 3 3 5 8 6 3 6 11 12 14 19 21 20 20 21 22 22
11 11 11 10 10 10 10 10 9 8 8 6 5 5 5 6 7 7 7 7 7 12 16 14 12 10 8 7 6 4 4 3 3 4 4 7 9 6 3 3 6 5 4 5 3 1 2 3 2 2 2 1 1 2 2 1 3 4 0 2 3 6 7 3 3 4 4 4 8 11 14 17 17 15 12 11 13 13 13 16 21 23 21 19 21 24 25
12 11 11 11 11 11 11 11 10 9 8 6 4 4 4 2 3 5 5 5 10 18 20 15 11 9 8 7 5 4 3 2 2 3 3 5 6 5 5 5 4 4 6 5 2 2 5 4 3 3 2 2 3 2 1 2 3 3 2 4 6 8 8 4 2 3 6 11 19 22 23 23 21 17 16 16 14 13 15 19 23 22 21 21 22 25 26
11 11 11 11 11 11 11 11 10 9 8 6 6 6 6 3 3 5 4 6 13 18 15 10 8 8 7 5 4 3 2 2 2 2 3 3 4 4 5 6 6 5 5 5 4 4 5 4 3 3 1 3 5 3 1 4 4 2 3 3 5 5 8 6 2 1 3 6 10 11 12 16 17 16 16 15 13 13 17 21 22 20 21 22 22 23 25
11 11 11 11 11 12 12 11 11 10 9 8 9 9 7 4 6 6 4 4 10 12 8 5 6 7 6 5 4 3 3 3 2 1 1 2 3 3 3 5 6 5 4 5 6 6 5 3 4 2 2 4 5 3 2 3 3 3 3 4 4 3 8 5 3 4 4 7 10 13 18 23 21 18 16 14 13 16 19 20 19 19 20 22 21 22 25
11 11 12 12 12 12 12 12 12 11 10 10 10 9 6 5 4 3 2 3 6 7 6 5 5 6 6 5 5 4 3 3 1 1 1 0 1 2 3 4 5 5 5 6 6 6 4 4 4 2 2 4 5 4 2 2 2 2 3 6 3 6 6 4 3 4 7 11 15 17 19 17 14 12 13 13 15 17 19 17 17 18 21 21 21 22 25
11 11 12 12 13 13 12 12 11 10 10 11 10 8 6 4 2 1 4 7 5 3 4 6 7 7 7 5 5 4 3 2 2 1 1 0 0 1 2 3 3 5 6 6 6 5 3 2 2 2 3 4 4 4 2 2 1 1 4 6 7 7 4 3 2 2 6 7 8 6 5 8 11 12 12 14 16 18 17 16 17 19 21 20 21 23 25
12 12 12 13 13 13 12 11 10 9 9 10 10 10 8 5 3 1 4 4 3 3 6 13 12 9 6 5 4 4 3 2 2 2 2 1 0 1 1 2 3 5 6 5 4 4 3 2 2 3 4 3 3 2 1 1 1 2 5 10 15 14 11 8 7 6 10 12 11 9 8 11 15 15 14 16 18 18 16 16 17 19 19 20 21 24 25
13 13 13 13 14 13 11 10 9 7 6 6 6 7 8 7 5 2 2 3 5 1 12 18 12 5 4 4 3 3 3 2 2 3 3 2 2 1 1 2 3 5 6 5 4 3 3 3 4 4 3 3 3 2 1 1 2 5 8 13 19 21 20 19 17 15 17 20 19 15 14 16 16 16 16 17 18 16 14 15 17 19 18 19 21 22 23
13 13 13 13 13 13 11 10 8 7 5 4 4 5 6 7 7 5 2 3 4 4 10 12 7 3 4 4 2 1 2 2 3 3 3 3 3 2 2 2 3 5 5 5 4 3 3 3 4 4 5 6 4 1 1 2 2 7 11 15 18 21 24 26 24 20 20 23 21 17 18 19 17 17 18 17 16 15 14 15 18 18 18 19 20 21 21
13 12 12 11 12 12 11 9 8 7 6 4 3 3 3 4 5 6 6 6 4 3 5 8 7 6 5 3 2 0 1 2 3 3 4 5 5 3 3 3 4 5 5 5 4 4 3 3 4 4 6 7 5 2 2 3 1 8 14 16 17 19 22 23 23 22 23 25 23 20 21 21 18 17 17 16 14 14 14 15 18 18 18 18 19 20 21
12 11 11 10 11 11 10 9 9 10 9 6 4 4 5 5 6 6 6 5 3 2 3 6 6 4 1 2 2 1 2 2 3 4 5 6 5 4 4 4 4 5 5 4 4 3 3 3 4 4 6 7 4 2 2 3 4 14 22 19 14 16 19 21 21 21 22 23 22 19 19 19 17 16 16 16 15 15 14 15 17 18 18 17 17 19 20
12 11 10 11 12 12 12 11 10 10 9 7 7 7 7 7 6 6 5 4 4 2 2 3 4 2 0 1 2 2 3 2 3 5 6 6 5 4 4 4 5 5 5 5 4 2 2 3 4 4 5 6 4 1 1 6 16 28 33 27 20 20 20 20 21 22 22 23 22 19 18 18 17 16 16 17 16 15 14 15 17 18 17 17 16 17 18
11 10 10 10 11 11 11 10 10 9 8 7 7 8 8 7 7 6 5 4 3 3 3 4 4 2 0 0 1 1 3 4 4 5 5 5 5 4 4 4 4 3 4 4 4 3 3 3 4 3 3 4 3 0 2 12 26 34 31 26 25 24 21 20 23 25 25 24 23 21 20 19 18 18 18 17 16 15 15 16 17 17 17 17 16 16 17
10 10 10 9 10 9 9 8 7 7 6 6 7 8 8 7 7 8 8 6 4 1 2 5 5 3 1 2 2 2 4 6 6 5 5 4 4 4 4 4 3 2 3 3 3 2 3 3 4 3 3 3 2 4 7 15 24 25 21 20 21 21 20 21 22 22 22 22 22 20 19 19 20 20 18 17 16 16 16 16 17 18 18 17 17 16 16
10 10 9 9 8 7 7 6 5 4 4 4 5 5 5 5 5 6 7 8 7 3 3 4 4 3 1 1 2 4 7 7 6 5 4 3 3 3 2 1 2 3 3 3 2 2 3 4 4 3 1 2 5 12 16 19 21 20 19 21 20 18 19 20 18 17 17 17 18 19 19 20 21 21 19 18 18 17 17 17 18 17 18 17 17 16 16
10 9 9 8 7 6 6 5 5 4 3 3 3 3 4 5 5 4 5 6 8 8 7 6 4 2 2 0 2 6 8 6 5 5 3 2 3 3 1 1 2 3 4 3 2 2 4 5 4 2 3 7 16 24 26 26 27 27 27 26 24 22 21 21 20 20 18 16 18 20 21 22 23 22 21 20 19 17 18 18 17 17 17 17 16 16 16
9 8 8 8 7 5 5 5 5 4 3 3 4 4 4 5 4 3 5 6 6 8 10 8 5 3 2 1 3 7 6 4 4 4 2 2 3 3 1 1 2 2 3 3 2 2 2 2 1 1 7 17 28 33 30 26 27 27 26 25 25 24 23 22 22 22 21 19 20 22 22 23 24 23 21 20 19 18 18 18 17 16 17 16 16 16 16
9 8 7 7 6 5 5 5 5 4 3 4 4 3 4 5 4 3 5 6 5 6 9 8 5 3 4 2 2 4 5 4 3 2 1 2 3 2 1 1 1 1 2 2 1 2 1 2 1 2 5 12 19 20 18 16 17 18 17 17 19 21 22 24 25 25 24 23 23 23 23 23 23 21 20 19 19 18 18 17 17 16 16 16 16 16 16
9 7 7 6 6 6 5 5 5 4 3 4 3 2 3 6 5 3 4 4 3 4 6 5 2 2 3 2 2 3 4 4 2 1 1 1 1 1 1 1 1 1 1 2 1 1 0 2 2 2 4 8 11 11 10 12 14 14 14 15 16 17 19 22 23 24 25 26 26 25 25 24 22 21 20 19 19 19 18 17 17 17 16 16 16 15 15
9 7 6 5 5 6 6 5 5 4 3 2 3 3 3 4 4 4 4 3 1 2 3 2 1 2 2 3 3 3 3 4 2 2 1 1 1 1 1 1 1 1 1 4 2 3 2 2 2 2 8 14 15 13 13 15 15 15 15 17 17 18 19 20 22 23 24 26 26 26 26 24 23 21 20 19 20 20 19 18 17 17 16 16 16 15 15
9 7 6 4 5 6 5 4 5 4 2 2 3 2 1 2 2 3 3 1 1 2 2 1 2 3 4 4 4 4 3 3 1 2 1 1 1 1 0 1 2 1 3 4 2 4 1 3 3 6 16 22 18 14 15 17 16 16 17 18 19 19 20 21 22 23 24 26 26 26 25 25 24 22 21 20 20 21 20 19 18 17 16 16 16 15 15
9 8 7 5 5 6 4 4 5 4 2 2 3 2 2 2 1 0 1 2 2 2 2 2 3 3 4 4 4 3 3 3 2 2 1 1 1 0 2 2 0 1 2 1 3 2 2 3 4 10 20 24 18 15 18 19 18 17 19 19 20 22 22 23 23 24 25 26 27 27 27 26 25 23 21 21 22 22 21 19 18 18 17 16 16 15 15
10 9 8 5 4 5 3 2 4 4 2 1 1 1 1 3 1 1 2 2 3 3 3 4 4 3 4 4 4 3 3 2 1 1 1 1 0 1 1 1 2 2 1 1 0 2 3 5 11 21 29 28 22 20 21 21 20 21 21 21 22 23 24 25 26 26 26 27 28 28 28 27 26 24 24 23 23 22 22 20 19 18 18 17 16 16 15
10 9 6 3 4 6 3 1 2 3 1 0 1 4 3 2 3 4 4 4 4 4 5 5 5 4 4 4 3 3 2 1 1 1 1 1 1 0 2 2 1 1 1 1 2 3 3 6 14 23 27 26 22 19 19 19 20 21 21 22 23 25 26 27 27 28 28 28 28 29 29 28 27 26 25 24 22 22 23 22 21 19 18 17 17 16 15
9 8 5 2 2 4 3 0 1 2 1 3 3 4 5 5 5 5 5 5 6 6 5 5 5 4 4 3 2 2 2 1 1 1 1 2 0 2 2 1 1 1 1 1 4 5 5 8 13 17 21 24 21 19 20 21 22 22 23 25 25 25 26 28 28 29 29 29 29 30 31 30 29 28 27 24 23 24 24 24 22 20 19 18 17 16 16
7 6 4 1 0 2 1 1 1 2 3 4 6 7 7 8 8 8 8 8 7 7 6 5 4 4 4 2 2 3 2 0 1 1 1 1 1 2 2 1 1 1 2 4 6 6 7 11 18 21 23 25 24 24 25 26 26 26 28 28 27 27 28 29 30 31 31 31 31 32 33 32 31 30 28 26 25 25 24 24 23 22 21 19 17 17 17
5 4 3 0 2 1 1 2 3 6 7 8 9 10 11 11 11 10 9 9 8 7 6 5 3 3 2 1 1 1 1 1 1 2 2 1 0 2 2 1 2 3 4 5 6 6 9 17 26 28 27 27 28 29 30 31 31 32 32 31 30 30 30 31 31 32 32 32 33 34 34 33 32 31 30 29 28 26 25 25 25 23 22 20 19 18 17
4 3 1 1 2 2 3 4 6 8 9 9 10 10 11 12 12 11 9 8 7 6 5 4 3 2 2 1 0 0 1 2 1 1 1 0 1 1 1 1 4 5 5 5 7 11 19 30 35 33 31 32 34 35 35 35 35 36 36 36 35 34 33 33 34 33 32 33 34 35 34 34 33 33 32 31 29 26 26 26 27 25 23 22 20 18 17
4 3 3 3 2 3 4 4 4 5 7 7 8 9 10 11 11 10 9 8 7 6 4 4 3 2 1 0 2 1 2 3 2 2 0 2 3 2 2 3 5 5 6 9 14 23 33 39 38 36 37 41 42 42 42 41 39 39 39 39 38 37 37 37 36 35 34 35 35 35 35 35 35 35 34 32 29 26 25 27 28 27 25 23 21 20 18
4 4 4 5 4 5 5 4 4 7 10 11 11 10 10 10 9 8 8 8 7 5 3 3 2 1 1 1 1 0 1 2 2 1 2 4 4 3 2 5 7 9 15 24 31 37 42 44 42 42 45 48 48 48 48 46 45 44 43 42 41 41 40 40 39 38 38 37 36 36 37 37 36 35 34 31 29 28 29 30 31 30 27 24 23 21 19
4 4 5 6 8 9 9 9 10 11 12 12 12 11 10 10 9 8 7 8 8 6 5 4 3 2 1 2 1 1 2 1 0 2 3 5 5 6 8 12 16 22 30 37 41 44 47 49 50 49 50 52 52 53 52 51 51 51 50 47 46 45 44 43 43 42 40 39 39 38 38 37 36 36 35 34 34 35 35 34 32 30 28 26 23 21 20
Wind_Direction
254 249 217 199 188 193 223 229 250 274 24 10 142 89 61 81 79 22 39 83 97 92 67 24 28 70 93 86 89 102 114 106 109 128 94 72 102 75 79 128 102 161 181 146 162 159 151 197 159 169 224 240 278 304 351 360 336 144 86 344 25 108 89 342 280 268 274 314 353 18 109 100 82 49 65 104 93 113 171 210 319 325 287 301 293 287 291
238 209 183 180 187 193 172 134 114 102 102 96 100 99 86 79 64 39 27 233 222 94 110 122 68 76 117 85 61 59 82 76 68 135 80 69 129 96 79 151 108 150 158 108 161 179 129 203 215 122 194 226 288 307 349 15 23 48 124 4 351 339 349 8 342 336 341 343 338 320 310 11 50 75 70 83 79 44 232 157 28 272 250 308 310 290 294
193 177 172 182 173 143 127 119 113 112 113 108 95 78 72 82 63 44 42 41 185 105 118 136 134 149 124 83 40 29 66 63 50 89 99 79 112 106 95 160 131 134 131 73 74 209 47 156 256 56 189 243 281 319 340 14 39 58 144 267 345 338 171 77 69 5 326 314 309 302 309 329 352 95 50 35 70 71 52 120 327 281 281 294 278 279 299
173 172 170 163 144 134 131 128 134 148 150 138 67 3 325 135 102 39 41 56 81 88 98 113 119 146 135 87 24 53 87 55 44 80 94 75 97 97 105 167 153 102 93 61 17 325 29 54 101 126 232 256 264 333 1 63 45 43 66 348 19 97 118 154 152 185 244 255 267 282 306 315 303 331 13 353 5 72 62 31 297 295 297 283 264 289 305
167 163 152 149 150 158 199 208 208 203 204 226 342 14 35 116 102 17 46 57 70 75 77 92 108 139 142 109 182 183 138 329 47 75 88 91 116 107 87 128 123 86 89 73 343 279 17 23 83 137 256 268 284 343 48 66 22 22 43 360 45 93 333 249 182 211 239 248 266 282 298 290 284 301 344 303 332 30 44 314 268 289 309 306 307 313 312
151 149 147 161 187 234 249 226 231 223 227 245 231 33 21 111 124 105 109 98 72 67 68 98 104 103 106 113 156 157 123 167 155 140 106 87 130 143 51 23 31 158 157 119 126 348 27 351 247 154 256 289 350 8 358 34 9 31 57 22 72 109 255 243 198 246 260 261 268 274 277 272 267 238 178 297 333 338 248 247 260 279 297 292 302 314 313
144 151 165 206 222 237 229 225 247 240 252 253 234 287 6 124 122 99 98 107 106 107 120 117 103 81 66 101 149 165 158 181 203 167 99 34 22 128 124 306 311 233 177 126 132 199 126 280 267 192 179 256 357 67 295 261 8 26 59 40 64 109 246 236 225 281 277 265 269 269 252 246 213 163 246 267 267 262 251 250 259 250 249 271 296 309 308
163 187 205 217 211 212 215 209 230 234 238 249 247 260 190 148 141 120 109 97 87 101 125 123 100 65 48 102 166 174 164 181 200 157 126 139 259 108 149 216 216 198 172 143 165 213 181 179 237 186 164 280 219 166 200 190 17 13 61 54 31 43 301 305 89 313 292 269 275 280 236 233 210 188 261 272 265 268 258 258 270 267 273 288 303 307 300
173 176 168 169 158 145 139 143 156 155 164 216 244 225 193 173 164 144 124 98 49 70 121 114 103 83 45 139 172 196 192 182 154 125 130 169 181 186 161 161 150 109 167 188 226 232 183 178 218 191 184 228 204 183 189 167 121 7 72 328 354 56 335 352 62 345 286 249 320 316 323 107 160 211 270 289 295 289 254 251 284 300 305 309 313 307 295
130 129 130 126 121 124 121 115 125 121 108 87 332 223 206 160 147 147 130 94 23 97 104 69 102 143 190 155 160 187 192 173 147 119 330 181 144 146 159 155 146 121 187 212 233 233 203 243 269 235 218 225 212 214 211 176 169 164 126 52 330 98 57 335 53 324 273 300 331 312 347 75 74 241 226 221 258 289 287 294 301 303 314 314 303 292 300
114 112 112 109 104 105 109 106 109 114 101 60 78 136 168 154 151 151 120 90 100 127 58 65 114 162 181 153 145 152 147 160 162 143 186 205 164 146 162 156 146 184 188 190 301 306 276 273 257 198 185 214 209 210 222 206 192 184 152 120 346 99 91 167 125 276 284 318 323 312 19 39 313 198 165 185 291 305 299 304 302 285 148 233 284 298 318
106 103 97 98 95 89 92 96 96 107 114 119 132 142 160 163 162 170 125 116 168 262 81 162 173 165 173 163 143 133 146 158 164 143 141 170 167 161 173 165 127 173 208 278 318 305 127 96 89 98 79 72 113 144 162 164 169 195 190 166 136 100 99 138 144 199 281 322 345 353 6 338 229 174 166 289 310 260 261 280 276 200 164 314 317 323 326
101 99 95 93 89 82 77 68 57 113 156 181 164 161 186 196 190 203 136 115 164 213 132 141 181 150 157 160 132 115 134 144 142 140 133 136 158 167 172 181 175 159 290 299 319 129 129 86 57 35 21 31 30 37 108 92 119 190 196 185 168 145 138 137 152 202 299 354 21 358 301 260 164 212 267 319 317 289 303 314 302 157 121 336 333 326 324
104 100 101 98 85 84 55 16 350 305 282 234 209 197 215 226 221 232 220 120 152 190 145 126 185 167 156 155 136 118 122 135 131 136 139 130 146 158 155 169 183 355 321 269 148 131 140 55 41 6 333 12 16 336 252 257 338 160 181 194 179 150 128 48 340 336 356 332 261 245 288 335 10 271 267 261 278 299 322 319 305 176 123 344 335 322 324
111 107 112 118 10 308 301 305 296 292 285 262 249 235 231 236 235 248 245 172 129 167 181 179 190 176 158 152 150 129 108 138 140 130 150 146 144 152 156 161 157 72 345 170 133 96 80 59 50 12 342 9 1 303 283 309 322 120 128 134 120 102 116 124 358 345 70 14 310 311 330 324 258 239 238 242 271 263 219 262 288 198 338 344 338 324 328
94 88 77 7 289 283 287 284 285 284 273 272 270 253 243 244 238 243 242 195 131 158 204 194 172 165 152 146 169 164 133 153 149 106 92 161 162 162 160 166 170 150 63 136 106 70 61 76 135 115 294 219 197 288 310 341 327 331 108 101 78 44 36 105 89 357 64 72 327 288 280 275 226 220 249 303 309 289 204 230 268 209 326 344 344 334 331
63 55 45 24 348 326 315 294 287 288 278 281 278 263 258 253 241 241 241 216 147 138 182 176 162 162 148 126 176 187 167 160 152 137 160 192 176 168 168 185 187 166 81 84 42 60 72 73 115 125 271 223 163 280 307 343 314 303 328 21 43 28 12 54 50 306 188 150 227 242 247 256 222 210 271 319 315 299 340 333 312 330 343 343 342 334 330
59 53 43 29 8 343 337 315 302 298 284 281 280 270 264 253 243 241 227 211 164 129 164 168 163 169 171 157 174 177 171 165 149 134 127 135 170 173 179 186 181 177 207 176 63 73 95 99 125 143 244 252 128 244 263 278 272 267 283 355 11 3 342 11 169 224 199 185 225 265 264 251 236 267 312 326 320 319 9 323 312 331 335 333 333 330 326
55 47 38 33 22 7 7 356 338 330 305 289 285 274 263 249 238 226 212 212 189 148 161 167 165 171 178 170 160 162 168 170 160 141 111 88 179 166 160 177 177 169 159 129 100 94 110 207 233 140 181 272 277 163 210 216 218 224 240 359 336 303 311 343 185 210 213 187 202 279 282 228 224 294 317 347 353 336 308 298 304 318 323 323 328 326 322
49 42 34 29 21 14 14 9 360 355 334 302 287 270 255 246 237 224 221 226 178 147 152 162 164 163 166 162 154 159 168 176 177 166 146 165 171 148 121 205 197 171 113 97 123 157 145 196 236 160 176 240 230 148 246 279 252 208 167 187 212 185 184 295 263 205 356 338 299 321 299 219 231 323 330 68 23 294 289 300 307 313 317 320 322 321 321
44 38 31 26 21 17 13 10 6 359 343 322 304 277 256 248 242 227 221 225 178 145 147 156 155 149 152 151 144 151 163 171 185 188 170 165 167 156 140 213 184 177 171 140 153 216 175 166 195 206 192 205 125 184 212 295 303 290 152 160 220 193 171 247 260 195 85 342 245 244 262 268 338 334 300 259 287 291 297 308 311 314 320 320 317 317 320
38 33 28 23 19 16 14 12 10 2 350 335 315 293 274 256 240 221 214 217 180 143 139 143 141 135 139 141 134 137 146 149 171 184 165 161 170 183 216 179 166 185 189 148 125 176 184 163 159 173 182 166 154 209 179 157 294 296 161 150 225 208 188 191 234 215 206 229 239 256 280 295 305 302 288 289 296 297 304 312 312 314 318 317 315 316 318
34 29 25 21 17 15 15 14 13 10 4 352 339 342 346 309 229 207 203 185 142 126 124 128 129 125 127 129 123 128 141 133 145 171 174 171 177 197 212 192 189 208 194 183 197 177 161 161 151 147 188 189 152 147 196 214 243 258 214 221 235 212 187 160 170 245 272 270 260 261 271 280 285 287 291 297 294 291 303 311 311 312 315 316 316 316 319
30 26 22 21 18 17 17 17 16 14 12 15 29 39 37 49 126 138 139 141 132 123 117 117 120 118 120 122 116 119 131 120 127 156 179 185 183 204 226 214 209 208 197 204 214 168 144 139 121 122 221 200 149 135 219 233 236 208 186 258 282 215 185 185 204 255 310 283 248 234 251 273 283 288 287 284 280 283 298 307 308 310 315 317 317 318 322
28 25 21 20 20 21 21 21 20 20 22 32 46 50 47 71 115 118 106 137 144 134 118 108 119 125 127 125 118 114 115 110 113 128 155 195 205 225 234 210 201 208 208 198 188 170 153 136 120 134 210 198 180 187 222 226 229 188 184 258 295 167 172 199 224 199 221 260 259 261 275 283 286 285 278 270 269 282 296 305 306 308 314 318 320 322 324
25 23 20 19 21 22 23 25 26 27 33 41 48 49 48 65 99 111 110 138 139 126 110 111 133 136 127 115 111 111 106 97 84 84 110 168 228 217 198 188 196 208 201 186 184 183 164 130 126 152 197 187 186 194 207 225 218 185 225 242 200 147 163 196 206 215 252 271 273 277 284 284 271 265 268 269 275 289 301 305 304 307 314 319 323 325 325
23 21 20 21 22 21 24 28 29 31 39 45 48 48 43 44 45 85 135 133 116 78 101 128 140 140 127 112 109 110 99 82 68 34 19 96 120 205 192 189 202 201 188 183 188 187 162 124 146 193 190 183 189 200 236 273 212 211 263 233 172 154 178 183 158 257 272 261 250 254 280 283 273 273 277 278 285 297 302 302 305 312 316 320 324 325 326
17 17 17 19 20 19 21 21 20 25 35 41 46 46 44 47 50 109 158 162 304 314 132 129 128 131 127 109 99 99 81 65 72 40 16 22 355 282 213 199 203 194 190 196 197 183 171 172 187 185 170 166 191 215 250 312 251 271 261 215 194 200 210 190 178 227 256 261 262 257 257 273 285 290 286 283 291 298 299 301 308 314 316 320 323 324 326
12 12 13 15 15 14 15 15 12 11 14 20 28 30 30 39 42 13 234 269 317 342 132 126 118 116 122 114 101 91 69 45 38 23 13 4 333 308 247 221 217 203 205 215 213 202 206 199 192 191 178 169 196 239 250 178 221 255 247 223 217 225 229 224 224 240 259 271 276 273 269 277 288 291 286 286 292 295 294 300 309 313 317 320 321 323 327
10 9 10 12 11 9 11 12 8 1 356 353 352 360 16 41 49 44 58 56 42 102 130 124 114 116 128 125 111 68 50 32 17 6 1 351 333 311 269 245 230 221 225 235 234 236 247 228 208 202 189 181 184 200 169 166 226 262 259 246 239 238 237 238 242 250 261 271 275 275 277 283 286 284 282 284 287 289 293 303 310 313 315 315 319 324 327
10 9 9 11 12 13 14 15 18 19 12 357 341 352 26 63 62 58 64 66 68 107 116 106 108 120 120 105 89 56 327 338 351 354 342 330 322 307 281 265 252 243 244 250 250 247 238 220 204 186 184 193 193 174 173 171 238 274 267 259 251 244 241 244 251 255 258 264 269 272 276 280 279 277 279 283 286 288 294 303 310 312 311 312 319 325 325
8 8 9 12 17 20 20 24 31 32 30 34 50 66 78 82 70 61 59 60 65 95 98 95 104 116 105 75 79 45 332 297 294 316 325 319 309 295 283 275 270 263 257 253 252 250 233 212 196 176 182 193 184 141 145 152 211 257 264 265 263 257 252 252 255 257 256 258 260 263 271 276 276 275 279 286 288 287 292 302 309 309 307 310 319 323 323
5 6 10 15 19 22 25 29 33 32 32 46 68 77 75 73 64 52 47 49 58 61 68 93 103 103 77 135 128 22 2 333 287 301 316 310 293 287 288 283 276 268 257 246 242 251 236 206 191 183 192 195 184 150 196 216 238 256 265 270 268 267 266 260 254 253 255 257 257 258 267 277 282 281 282 286 286 283 288 300 305 304 304 309 315 317 318
2 7 14 18 19 21 24 30 36 36 35 48 69 74 68 63 57 46 35 27 36 46 47 65 92 110 51 86 165 321 354 352 330 320 321 308 291 287 286 283 281 271 250 241 241 250 244 214 192 186 188 187 186 187 268 247 252 261 270 273 269 267 263 255 252 254 258 261 263 263 267 274 278 279 281 283 280 279 285 295 300 302 303 304 307 312 316
5 12 17 16 16 19 21 25 34 38 40 55 70 71 65 60 54 49 41 29 18 15 42 51 72 101 28 355 351 334 337 339 333 321 312 306 300 297 297 291 280 261 245 241 239 239 226 199 188 196 186 168 194 225 237 251 261 268 272 271 265 258 250 250 258 264 264 263 262 262 264 267 271 277 281 280 276 276 282 291 297 298 298 299 304 310 316
10 14 15 13 13 14 12 15 22 26 34 53 57 48 39 31 28 33 36 31 29 43 73 71 73 78 54 325 318 332 335 336 330 314 301 304 307 304 306 296 273 276 278 268 254 245 218 190 193 223 178 135 209 231 238 250 263 271 274 273 269 262 259 263 268 271 267 261 258 259 261 265 270 276 278 275 272 272 277 285 291 292 293 297 304 309 314
14 14 13 12 10 7 8 14 17 19 31 30 10 354 350 353 358 5 15 26 38 53 65 79 84 52 39 217 311 333 333 328 327 325 319 322 317 304 286 273 294 303 304 290 266 234 208 191 191 227 229 227 243 253 260 266 271 274 278 279 277 273 270 267 263 262 261 257 255 256 259 263 268 272 273 270 266 264 269 280 288 289 291 297 302 306 312
16 13 13 14 13 13 19 19 14 19 23 354 336 338 344 346 351 11 19 27 44 49 50 65 85 52 18 315 323 341 339 324 329 342 351 348 335 323 303 319 320 318 308 289 249 201 212 208 186 251 254 253 258 267 273 274 272 273 276 277 275 273 270 265 260 256 252 249 253 259 260 261 265 271 272 268 262 259 267 279 285 286 288 294 299 303 308
16 15 15 17 18 23 29 24 17 16 2 342 336 334 346 356 6 15 12 22 42 39 37 55 84 54 23 8 324 343 346 339 340 346 349 349 339 321 312 359 7 2 329 299 187 149 282 295 315 320 280 265 266 275 278 271 267 271 274 273 270 267 264 262 262 261 260 262 267 270 268 267 271 275 274 268 260 257 265 276 281 283 287 291 295 300 306
16 17 19 20 27 35 32 20 12 2 344 348 360 8 13 23 32 22 6 21 43 36 32 43 58 23 15 359 306 320 333 334 327 282 253 272 275 269 321 22 37 11 308 272 240 98 25 279 296 315 266 251 258 272 273 266 270 276 275 270 267 263 260 261 264 266 267 268 268 268 269 271 273 275 274 269 260 257 263 273 279 281 284 287 291 296 302
19 22 25 27 31 29 20 11 7 2 353 10 26 31 29 28 22 15 26 41 12 339 10 24 344 318 329 317 293 281 297 315 306 241 245 281 248 244 280 312 347 20 255 253 276 64 85 269 295 262 247 255 266 274 272 271 278 281 275 269 267 264 261 262 263 263 264 265 265 267 269 269 269 271 273 269 261 257 261 271 277 278 280 283 288 293 297
18 16 17 18 12 6 5 12 15 13 20 36 31 24 22 17 10 16 35 58 244 287 323 308 280 294 310 313 297 273 281 305 278 210 220 312 246 208 184 2 6 3 236 254 345 53 49 275 269 247 258 268 273 271 269 275 282 282 276 271 268 265 264 264 265 264 265 265 266 266 266 265 266 270 271 267 261 257 258 265 273 276 278 280 283 288 292
8 2 357 350 350 354 1 15 17 22 49 58 37 17 356 359 14 5 329 285 220 215 260 272 279 302 312 311 303 283 269 267 250 222 209 240 241 62 55 45 6 233 245 301 43 80 222 241 224 250 271 281 281 271 272 280 284 282 277 272 269 267 266 266 266 266 266 265 266 265 264 263 264 267 267 265 261 257 257 262 269 272 273 275 279 283 288
360 353 345 331 339 354 356 353 8 26 51 51 56 106 348 334 313 211 263 269 219 214 256 265 256 276 298 302 297 274 243 234 240 230 229 248 283 64 83 223 243 262 309 348 58 208 245 248 240 252 269 282 285 279 280 283 283 282 281 277 271 268 265 264 265 266 266 265 265 264 263 261 261 262 263 264 263 259 256 258 264 268 270 273 276 280 284
356 353 352 344 351 0 360 324 356 21 49 214 166 155 176 238 233 210 230 257 249 256 279 273 254 262 291 302 289 252 226 227 246 236 242 358 29 144 225 249 294 4 25 339 269 264 277 260 248 256 274 290 292 286 287 290 287 284 282 278 275 272 268 267 268 268 268 268 268 266 264 262 260 260 262 265 264 258 253 254 260 265 268 270 273 277 282
356 356 6 22 356 4 21 86 349 10 172 200 207 197 204 228 236 233 248 266 265 264 272 273 262 261 276 292 281 246 234 251 252 220 111 85 187 253 261 294 343 7 27 301 269 257 248 248 257 277 303 315 308 294 292 295 292 286 283 282 283 280 275 271 270 270 270 270 268 265 263 261 259 260 263 264 261 256 253 253 256 260 264 267 270 272 275
350 350 6 33 310 346 19 173 235 261 234 234 247 250 250 255 258 260 265 268 266 264 266 268 267 264 264 269 256 240 232 164 176 204 166 147 235 301 1 21 268 221 185 223 249 246 238 257 275 294 316 324 315 302 297 297 294 291 289 288 286 283 277 273 271 271 270 269 267 265 264 262 260 260 260 260 259 258 254 251 252 256 260 263 264 265 269
339 333 351 29 200 217 202 215 254 272 272 268 267 265 262 260 262 267 269 264 261 260 260 260 265 271 266 252 230 225 187 124 190 219 193 142 291 324 357 320 275 243 208 223 237 231 247 276 291 301 312 318 316 310 305 300 297 295 294 291 288 285 281 278 275 273 272 269 267 266 265 263 261 259 259 258 259 259 254 250 250 252 255 257 258 261 266
321 302 288 178 190 222 237 259 283 288 281 273 268 265 264 265 267 269 269 263 255 251 253 263 276 273 252 253 22 159 198 195 191 163 83 108 251 236 147 227 266 259 235 216 219 243 272 292 301 303 304 308 312 312 310 307 302 299 296 293 292 289 285 280 278 277 273 269 268 269 268 265 261 258 256 257 260 261 257 251 248 249 251 253 255 257 261
301 275 241 218 240 267 263 272 291 287 279 280 280 274 273 277 278 275 269 257 246 237 238 251 256 235 196 62 25 359 240 205 162 115 189 236 209 170 185 236 241 234 233 243 258 275 290 300 304 302 302 306 310 310 310 310 307 303 300 298 294 290 285 282 280 277 273 270 270 269 267 264 261 259 258 260 264 265 259 250 247 248 249 250 250 252 256
286 266 237 228 244 261 262 268 280 282 288 297 299 292 286 289 293 290 272 247 227 211 210 221 211 111 65 347 300 263 181 162 137 130 247 231 187 148 186 227 221 232 260 276 286 295 302 306 305 304 306 309 310 310 311 311 309 306 303 301 297 293 287 283 280 277 275 273 271 268 267 266 265 263 262 262 261 257 250 247 247 248 247 246 247 249 252
272 262 259 267 274 275 272 275 284 290 295 299 300 297 293 293 295 292 270 236 217 213 219 211 172 107 74 251 227 117 114 139 219 278 258 230 198 185 207 235 253 267 278 286 294 301 305 307 307 308 309 310 311 312 312 310 308 307 306 304 301 298 293 286 282 280 278 274 271 270 270 270 266 261 257 254 251 250 250 252 253 251 248 246 246 246 245
Height
1552 1553 1553 1553 1554 1554 1554 1554 1554 1554 1553 1553 1553 1553 1553 1552 1553 1554 1553 1553 1553 1552 1560 1569 1572 1574 1577 1578 1579 1579 1579 1580 1581 1582 1583 1583 1583 1584 1585 1586 1586 1587 1588 1589 1589 1588 1588 1589 1589 1590 1591 1592 1592 1592 1592 1591 1591 1590 1588 1590 1590 1590 1593 1589 1576 1567 1564 1565 1568 1568 1568 1568 1570 1576 1581 1583 1584 1584 1586 1586 1582 1583 1580 1574 1573 1559 1537
1553 1553 1553 1553 1554 1554 1554 1554 1554 1554 1553 1553 1553 1553 1553 1553 1553 1554 1553 1553 1553 1553 1558 1567 1573 1577 1578 1578 1579 1579 1580 1581 1581 1582 1582 1583 1584 1583 1584 1586 1585 1586 1588 1588 1588 1588 1586 1587 1590 1591 1591 1591 1591 1592 1592 1591 1591 1590 1588 1590 1589 1586 1588 1585 1575 1570 1566 1563 1565 1566 1565 1567 1570 1576 1583 1584 1586 1586 1585 1587 1590 1588 1578 1575 1577 1560 1534
1552 1553 1553 1553 1554 1553 1554 1554 1554 1554 1554 1554 1554 1554 1554 1554 1554 1554 1554 1553 1553 1555 1558 1563 1570 1577 1577 1577 1580 1580 1580 1581 1581 1582 1583 1583 1584 1583 1584 1586 1585 1588 1589 1587 1589 1589 1586 1586 1590 1592 1592 1592 1592 1592 1591 1591 1591 1590 1590 1591 1589 1587 1588 1587 1583 1586 1585 1578 1575 1571 1568 1569 1571 1576 1583 1583 1584 1587 1585 1586 1590 1584 1575 1577 1579 1561 1535
1552 1553 1553 1553 1554 1554 1554 1554 1554 1554 1554 1554 1554 1554 1554 1554 1554 1555 1555 1554 1554 1557 1561 1563 1566 1573 1573 1575 1580 1580 1579 1581 1582 1582 1583 1583 1584 1584 1584 1586 1586 1587 1587 1586 1587 1589 1589 1588 1589 1590 1590 1590 1592 1592 1591 1591 1591 1590 1591 1590 1589 1591 1592 1589 1586 1588 1589 1585 1579 1573 1572 1575 1574 1576 1582 1583 1585 1587 1584 1583 1584 1581 1576 1572 1567 1557 1540
1552 1553 1553 1553 1554 1554 1554 1554 1554 1554 1554 1554 1554 1554 1554 1553 1555 1557 1557 1556 1557 1560 1564 1565 1566 1570 1570 1572 1578 1580 1579 1581 1582 1582 1583 1583 1584 1584 1585 1585 1585 1584 1585 1585 1585 1587 1590 1590 1588 1589 1591 1591 1592 1592 1591 1591 1590 1590 1591 1589 1590 1590 1588 1588 1589 1586 1582 1581 1577 1575 1577 1580 1577 1578 1583 1584 1584 1585 1584 1583 1580 1579 1576 1562 1551 1552 1546
1552 1553 1553 1554 1554 1554 1554 1554 1554 1554 1554 1554 1554 1554 1554 1554 1556 1559 1559 1558 1562 1564 1565 1567 1568 1569 1571 1575 1579 1579 1579 1580 1580 1581 1583 1583 1583 1583 1583 1584 1585 1584 1585 1584 1583 1586 1588 1588 1588 1591 1592 1592 1592 1591 1592 1592 1590 1591 1591 1589 1592 1591 1586 1590 1593 1586 1582 1583 1579 1577 1580 1580 1578 1579 1582 1583 1583 1583 1583 1582 1577 1577 1578 1564 1549 1550 1549
1553 1553 1554 1554 1554 1554 1554 1554 1554 1554 1554 1554 1554 1554 1555 1555 1556 1559 1560 1561 1565 1566 1567 1568 1568 1569 1572 1576 1579 1578 1577 1578 1579 1581 1582 1582 1584 1583 1581 1583 1585 1586 1586 1584 1584 1585 1583 1583 1587 1590 1591 1591 1590 1589 1590 1590 1590 1591 1590 1590 1593 1590 1587 1591 1594 1588 1583 1580 1576 1576 1579 1579 1578 1580 1581 1581 1582 1582 1580 1578 1575 1575 1573 1564 1555 1553 1550
1553 1554 1554 1554 1554 1554 1554 1554 1553 1553 1553 1554 1554 1553 1554 1554 1555 1557 1559 1562 1566 1568 1568 1569 1568 1570 1572 1572 1575 1578 1576 1576 1579 1581 1581 1580 1582 1583 1581 1583 1585 1586 1586 1585 1584 1584 1583 1581 1585 1588 1588 1588 1589 1588 1587 1588 1590 1590 1591 1593 1593 1589 1587 1592 1596 1588 1577 1572 1572 1574 1575 1575 1576 1580 1581 1580 1580 1579 1578 1576 1573 1570 1564 1558 1557 1556 1551
1553 1554 1554 1554 1554 1554 1554 1553 1553 1553 1553 1553 1553 1553 1554 1554 1554 1555 1557 1563 1569 1569 1569 1570 1568 1569 1571 1571 1573 1577 1576 1576 1578 1580 1581 1580 1580 1582 1581 1582 1585 1586 1586 1585 1583 1583 1584 1583 1584 1586 1586 1585 1586 1586 1586 1588 1589 1589 1592 1593 1592 1590 1590 1592 1597 1587 1572 1569 1571 1570 1574 1579 1579 1579 1579 1579 1578 1577 1575 1573 1569 1565 1559 1555 1557 1558 1552
1553 1554 1554 1554 1554 1554 1554 1553 1553 1553 1553 1553 1553 1553 1554 1554 1555 1555 1555 1562 1570 1570 1569 1570 1567 1567 1570 1571 1573 1574 1575 1577 1577 1577 1580 1581 1580 1581 1582 1581 1583 1584 1583 1583 1583 1583 1583 1583 1584 1584 1585 1585 1585 1586 1586 1587 1588 1588 1591 1593 1594 1595 1590 1590 1596 1585 1567 1566 1571 1570 1571 1570 1567 1571 1576 1576 1576 1573 1568 1566 1562 1560 1560 1560 1560 1558 1550
1554 1554 1554 1554 1554 1554 1554 1554 1554 1554 1554 1554 1553 1553 1554 1554 1555 1556 1556 1560 1568 1570 1569 1569 1567 1568 1571 1571 1573 1574 1575 1576 1577 1575 1577 1580 1581 1581 1581 1581 1582 1581 1581 1582 1582 1582 1582 1583 1583 1583 1584 1585 1585 1586 1586 1587 1587 1587 1589 1591 1594 1596 1590 1591 1597 1586 1567 1569 1572 1563 1553 1548 1552 1566 1573 1572 1572 1571 1565 1562 1558 1557 1560 1561 1558 1552 1546
1554 1555 1554 1555 1555 1554 1555 1554 1554 1554 1554 1554 1554 1554 1555 1555 1555 1556 1556 1558 1566 1570 1568 1567 1568 1569 1570 1571 1572 1574 1575 1575 1577 1576 1577 1579 1580 1580 1581 1581 1580 1580 1581 1581 1581 1582 1582 1582 1584 1584 1584 1585 1585 1586 1586 1586 1587 1587 1587 1588 1590 1591 1589 1592 1599 1591 1576 1575 1571 1549 1535 1545 1561 1569 1569 1568 1567 1567 1563 1558 1555 1556 1557 1556 1553 1548 1543
1555 1555 1555 1555 1555 1555 1555 1555 1554 1555 1554 1554 1554 1554 1555 1555 1555 1556 1556 1557 1564 1569 1567 1568 1569 1569 1569 1571 1572 1573 1574 1575 1577 1577 1577 1578 1579 1580 1580 1580 1580 1580 1580 1581 1581 1581 1582 1583 1585 1584 1585 1587 1586 1586 1586 1586 1586 1587 1587 1587 1587 1587 1588 1589 1594 1591 1580 1579 1580 1560 1545 1558 1571 1568 1565 1567 1565 1562 1559 1551 1549 1554 1555 1552 1550 1546 1542
1556 1556 1556 1556 1556 1555 1555 1555 1555 1555 1554 1554 1555 1555 1555 1555 1555 1556 1555 1556 1563 1568 1567 1566 1568 1569 1569 1571 1572 1573 1575 1576 1576 1577 1578 1578 1578 1580 1579 1579 1580 1580 1580 1580 1580 1580 1580 1581 1580 1579 1581 1583 1581 1580 1583 1586 1586 1586 1586 1586 1586 1587 1588 1586 1586 1588 1584 1582 1584 1573 1556 1558 1568 1567 1565 1566 1564 1562 1562 1555 1549 1550 1552 1552 1549 1545 1541
1556 1556 1556 1556 1556 1556 1555 1555 1555 1555 1555 1555 1555 1555 1555 1555 1555 1556 1555 1555 1561 1566 1566 1564 1565 1567 1569 1570 1571 1573 1575 1576 1576 1577 1578 1578 1578 1579 1579 1579 1580 1579 1580 1580 1579 1581 1580 1576 1574 1573 1573 1575 1577 1576 1578 1581 1584 1586 1587 1587 1586 1586 1587 1585 1582 1586 1591 1586 1582 1574 1556 1547 1556 1564 1563 1563 1562 1561 1563 1563 1555 1549 1550 1550 1548 1544 1540
1556 1556 1556 1556 1556 1555 1555 1555 1555 1555 1555 1554 1554 1554 1554 1554 1554 1555 1555 1555 1557 1560 1563 1563 1564 1566 1568 1569 1571 1572 1572 1574 1576 1576 1577 1578 1578 1578 1578 1579 1579 1579 1579 1578 1579 1581 1579 1577 1579 1579 1575 1578 1583 1580 1577 1578 1581 1584 1586 1587 1587 1586 1588 1589 1585 1585 1591 1589 1586 1580 1563 1547 1553 1561 1559 1559 1559 1558 1560 1560 1551 1547 1548 1547 1544 1542 1539
1557 1556 1556 1556 1556 1555 1555 1555 1554 1554 1554 1554 1554 1554 1554 1554 1554 1554 1555 1554 1555 1557 1561 1563 1564 1565 1567 1568 1570 1570 1571 1572 1574 1573 1574 1575 1577 1578 1578 1578 1578 1578 1578 1578 1579 1580 1579 1581 1586 1582 1579 1586 1588 1579 1578 1582 1579 1578 1581 1584 1585 1586 1587 1589 1585 1583 1589 1591 1588 1581 1565 1552 1554 1558 1556 1556 1556 1555 1556 1549 1538 1539 1545 1543 1541 1541 1538
1557 1557 1556 1556 1555 1555 1555 1554 1554 1554 1554 1554 1554 1553 1553 1553 1553 1553 1554 1553 1554 1558 1561 1562 1563 1564 1565 1566 1568 1568 1569 1570 1571 1571 1573 1574 1575 1576 1576 1577 1578 1577 1577 1579 1579 1578 1578 1582 1585 1579 1577 1587 1590 1581 1580 1583 1578 1575 1579 1582 1584 1587 1589 1590 1587 1585 1588 1591 1587 1577 1562 1553 1553 1555 1554 1554 1552 1552 1556 1550 1539 1538 1542 1541 1541 1541 1538
1557 1557 1557 1556 1556 1555 1555 1554 1554 1553 1553 1553 1553 1553 1552 1552 1552 1552 1553 1553 1553 1556 1560 1562 1563 1564 1565 1565 1566 1567 1568 1569 1569 1571 1572 1572 1573 1574 1575 1576 1576 1576 1577 1577 1579 1580 1577 1580 1589 1589 1581 1583 1588 1584 1580 1580 1577 1578 1581 1581 1582 1584 1585 1587 1586 1584 1585 1589 1586 1571 1554 1549 1552 1552 1551 1551 1552 1554 1554 1549 1544 1542 1541 1540 1540 1538 1537
1558 1558 1557 1556 1556 1555 1555 1554 1553 1553 1553 1552 1552 1552 1552 1552 1552 1552 1552 1552 1552 1555 1560 1562 1563 1564 1565 1565 1566 1566 1567 1568 1568 1569 1569 1569 1571 1573 1573 1572 1572 1575 1576 1574 1576 1582 1578 1575 1587 1592 1582 1580 1585 1584 1580 1579 1577 1577 1579 1579 1580 1581 1579 1578 1580 1581 1582 1585 1579 1560 1545 1545 1550 1550 1549 1550 1553 1553 1549 1545 1544 1543 1541 1539 1537 1536 1535
1559 1558 1558 1557 1556 1556 1555 1554 1553 1553 1552 1552 1551 1551 1551 1551 1551 1551 1551 1552 1552 1554 1559 1562 1563 1564 1565 1565 1566 1566 1567 1567 1567 1568 1568 1568 1570 1570 1568 1568 1569 1572 1573 1571 1573 1579 1578 1577 1585 1587 1581 1583 1586 1582 1580 1578 1575 1577 1581 1580 1579 1580 1576 1573 1576 1579 1578 1574 1563 1549 1542 1545 1548 1548 1549 1549 1548 1547 1546 1543 1542 1540 1538 1537 1536 1534 1533
1560 1559 1558 1558 1557 1556 1555 1555 1554 1553 1553 1552 1551 1551 1550 1550 1550 1550 1551 1552 1551 1554 1558 1562 1563 1564 1565 1565 1566 1566 1566 1567 1567 1567 1567 1567 1569 1569 1568 1569 1569 1569 1570 1571 1571 1573 1576 1579 1582 1580 1578 1582 1583 1582 1585 1579 1569 1572 1580 1576 1570 1571 1570 1568 1569 1572 1570 1562 1552 1545 1543 1545 1546 1545 1546 1545 1544 1544 1543 1542 1540 1538 1536 1535 1533 1531 1529
1561 1560 1559 1558 1558 1557 1556 1555 1554 1553 1553 1552 1551 1551 1550 1550 1550 1550 1551 1551 1552 1555 1560 1562 1564 1565 1565 1566 1566 1566 1566 1567 1566 1567 1567 1567 1568 1569 1568 1568 1569 1568 1569 1569 1568 1569 1571 1573 1575 1574 1574 1576 1576 1579 1584 1581 1573 1573 1575 1570 1565 1566 1568 1568 1567 1567 1563 1553 1545 1544 1544 1543 1544 1544 1543 1542 1542 1541 1540 1539 1538 1536 1534 1532 1530 1528 1526
1562 1561 1560 1559 1559 1558 1557 1556 1555 1554 1553 1552 1551 1551 1550 1550 1551 1551 1552 1552 1553 1556 1561 1564 1565 1565 1565 1566 1566 1566 1567 1567 1566 1567 1567 1567 1567 1567 1567 1568 1568 1568 1568 1568 1568 1569 1569 1571 1574 1574 1571 1572 1573 1572 1572 1572 1572 1572 1569 1566 1565 1565 1566 1566 1565 1565 1562 1550 1540 1541 1543 1541 1542 1542 1541 1540 1540 1539 1538 1538 1535 1534 1532 1530 1528 1526 1524
1563 1562 1561 1560 1559 1558 1557 1557 1556 1555 1554 1553 1552 1552 1552 1552 1552 1552 1553 1553 1553 1555 1560 1565 1566 1566 1566 1566 1566 1567 1567 1567 1567 1567 1567 1567 1567 1567 1566 1567 1567 1567 1568 1567 1568 1569 1568 1569 1574 1573 1569 1569 1570 1570 1569 1566 1567 1569 1567 1562 1560 1562 1564 1564 1562 1561 1557 1545 1537 1539 1540 1538 1539 1539 1538 1538 1538 1537 1536 1535 1533 1532 1530 1527 1525 1524 1521
1563 1563 1562 1561 1560 1559 1558 1557 1556 1555 1554 1554 1553 1553 1553 1553 1554 1553 1553 1554 1554 1555 1559 1564 1566 1566 1566 1567 1567 1567 1567 1567 1567 1567 1567 1567 1567 1566 1566 1567 1567 1567 1567 1567 1568 1568 1568 1569 1571 1571 1569 1569 1569 1570 1570 1567 1566 1568 1565 1558 1557 1560 1561 1559 1557 1556 1551 1542 1537 1537 1536 1534 1535 1536 1535 1535 1535 1534 1533 1532 1530 1529 1527 1525 1523 1521 1519
1564 1563 1562 1561 1560 1559 1558 1558 1557 1556 1556 1555 1555 1555 1554 1554 1555 1555 1554 1555 1555 1555 1558 1563 1566 1566 1567 1567 1567 1567 1567 1567 1567 1567 1567 1566 1566 1566 1566 1566 1566 1566 1567 1567 1567 1568 1568 1568 1569 1569 1568 1569 1569 1569 1569 1568 1568 1568 1563 1557 1556 1558 1555 1553 1554 1552 1545 1537 1534 1534 1533 1531 1531 1532 1532 1532 1531 1530 1529 1528 1527 1526 1524 1521 1519 1518 1517
1565 1564 1563 1562 1561 1560 1559 1558 1558 1557 1557 1556 1556 1556 1556 1555 1555 1556 1556 1556 1556 1555 1557 1561 1565 1566 1567 1568 1568 1567 1568 1568 1567 1567 1567 1566 1566 1566 1566 1566 1567 1567 1567 1567 1567 1567 1568 1567 1567 1567 1568 1568 1568 1568 1568 1568 1568 1564 1555 1549 1548 1546 1543 1544 1546 1542 1534 1529 1529 1531 1531 1530 1529 1529 1529 1528 1527 1527 1526 1524 1524 1523 1520 1518 1516 1514 1513
1565 1564 1563 1562 1561 1561 1560 1559 1558 1558 1557 1557 1557 1557 1557 1556 1556 1556 1556 1556 1556 1555 1557 1561 1565 1567 1567 1568 1568 1568 1568 1568 1568 1567 1567 1567 1567 1566 1566 1566 1566 1566 1567 1567 1566 1566 1567 1566 1565 1566 1566 1566 1567 1566 1566 1568 1564 1552 1540 1537 1538 1536 1534 1535 1535 1532 1528 1527 1528 1529 1528 1527 1527 1527 1526 1525 1524 1524 1523 1521 1520 1519 1517 1516 1514 1511 1509
1565 1565 1564 1563 1562 1561 1560 1559 1559 1558 1558 1558 1558 1557 1557 1557 1557 1557 1557 1557 1557 1557 1558 1560 1565 1568 1568 1568 1569 1568 1568 1568 1568 1567 1568 1567 1567 1567 1566 1566 1566 1566 1566 1567 1566 1565 1566 1565 1565 1565 1565 1565 1567 1566 1566 1567 1561 1543 1531 1530 1532 1530 1529 1529 1529 1528 1526 1525 1526 1526 1525 1525 1525 1524 1523 1522 1522 1521 1520 1518 1517 1516 1514 1513 1511 1509 1507
1566 1565 1564 1564 1563 1562 1561 1560 1559 1559 1558 1558 1558 1558 1558 1558 1559 1558 1558 1558 1558 1558 1559 1560 1564 1568 1568 1568 1569 1569 1569 1569 1568 1568 1568 1567 1567 1567 1566 1566 1566 1566 1566 1565 1565 1565 1564 1563 1563 1564 1564 1564 1566 1566 1565 1566 1558 1539 1526 1526 1527 1526 1526 1526 1525 1525 1525 1523 1524 1524 1522 1522 1522 1521 1520 1519 1518 1518 1517 1515 1514 1513 1511 1510 1508 1506 1504
1567 1566 1565 1564 1564 1562 1561 1561 1560 1559 1559 1559 1558 1558 1559 1559 1560 1560 1559 1559 1559 1559 1559 1561 1564 1568 1569 1569 1569 1569 1569 1569 1569 1568 1568 1568 1567 1567 1566 1566 1566 1566 1565 1565 1565 1564 1563 1563 1563 1563 1564 1564 1565 1565 1565 1563 1552 1533 1521 1521 1523 1523 1523 1522 1522 1522 1523 1522 1522 1521 1519 1519 1519 1517 1516 1516 1515 1515 1514 1512 1511 1510 1509 1507 1506 1503 1501
1567 1566 1565 1564 1564 1563 1562 1562 1561 1561 1560 1560 1560 1560 1560 1560 1560 1560 1560 1560 1560 1560 1560 1561 1564 1568 1569 1569 1570 1569 1569 1569 1569 1568 1568 1568 1567 1567 1566 1566 1566 1565 1564 1564 1564 1563 1562 1562 1562 1562 1563 1563 1563 1565 1562 1551 1535 1521 1517 1520 1521 1520 1520 1520 1520 1519 1519 1518 1519 1518 1516 1515 1515 1514 1513 1513 1512 1511 1511 1510 1508 1507 1506 1504 1503 1501 1500
1567 1566 1565 1565 1564 1564 1563 1563 1562 1562 1562 1561 1561 1561 1561 1561 1561 1561 1561 1561 1560 1561 1561 1561 1565 1568 1569 1569 1570 1570 1569 1569 1569 1568 1568 1567 1566 1566 1566 1565 1565 1565 1563 1563 1563 1562 1562 1562 1562 1562 1562 1562 1564 1563 1552 1533 1519 1516 1516 1517 1517 1516 1517 1517 1516 1515 1515 1515 1515 1514 1513 1512 1512 1511 1510 1509 1508 1508 1507 1506 1505 1504 1503 1502 1500 1499 1497
1567 1566 1566 1565 1565 1564 1564 1564 1563 1563 1563 1563 1563 1563 1563 1562 1562 1562 1562 1561 1561 1561 1562 1562 1565 1568 1568 1567 1569 1570 1570 1569 1569 1568 1568 1567 1566 1566 1566 1565 1565 1564 1563 1562 1562 1561 1561 1561 1560 1559 1560 1562 1561 1553 1537 1520 1513 1514 1514 1513 1513 1513 1513 1512 1511 1511 1511 1512 1511 1511 1510 1509 1508 1507 1506 1505 1504 1504 1503 1502 1501 1500 1499 1499 1497 1496 1494
1567 1567 1566 1566 1565 1565 1565 1564 1564 1564 1564 1564 1564 1564 1563 1563 1563 1563 1563 1562 1562 1562 1563 1564 1567 1570 1570 1568 1569 1570 1570 1569 1568 1568 1567 1567 1566 1566 1565 1565 1564 1563 1562 1562 1561 1560 1561 1561 1559 1559 1561 1557 1545 1530 1519 1513 1512 1511 1510 1509 1510 1510 1508 1508 1508 1508 1508 1508 1508 1507 1506 1505 1504 1503 1502 1501 1501 1500 1499 1499 1498 1497 1496 1495 1494 1492 1490
1567 1567 1566 1566 1566 1565 1565 1565 1565 1565 1564 1564 1564 1564 1564 1564 1564 1563 1563 1563 1563 1564 1564 1565 1569 1573 1573 1572 1571 1572 1570 1569 1568 1568 1567 1566 1566 1565 1565 1566 1564 1563 1561 1560 1560 1559 1559 1559 1558 1557 1553 1541 1524 1513 1511 1511 1510 1508 1507 1506 1506 1506 1506 1506 1505 1505 1505 1505 1504 1503 1502 1501 1500 1499 1498 1497 1497 1497 1496 1495 1494 1493 1492 1491 1491 1489 1487
1568 1567 1567 1566 1566 1565 1565 1565 1565 1565 1565 1565 1564 1564 1564 1564 1564 1564 1564 1564 1565 1565 1566 1567 1571 1573 1574 1572 1572 1571 1570 1569 1569 1568 1566 1566 1566 1565 1565 1565 1564 1563 1562 1560 1559 1559 1559 1558 1560 1556 1542 1524 1513 1509 1508 1507 1505 1504 1503 1503 1502 1502 1503 1502 1502 1502 1501 1500 1499 1498 1497 1496 1495 1494 1494 1494 1493 1492 1492 1491 1490 1489 1488 1487 1487 1485 1483
1568 1568 1567 1566 1566 1566 1565 1565 1565 1565 1565 1565 1564 1565 1565 1564 1564 1565 1566 1566 1567 1567 1568 1570 1572 1573 1573 1572 1572 1571 1570 1570 1569 1568 1567 1567 1566 1565 1565 1565 1564 1564 1562 1557 1557 1559 1556 1554 1558 1556 1537 1517 1509 1506 1502 1501 1502 1501 1499 1500 1499 1499 1499 1498 1497 1497 1495 1494 1493 1493 1492 1491 1491 1490 1489 1489 1488 1488 1487 1486 1486 1485 1484 1483 1483 1481 1480
1569 1568 1568 1567 1567 1566 1566 1565 1565 1565 1565 1565 1564 1564 1565 1565 1565 1567 1568 1568 1569 1570 1571 1571 1572 1573 1572 1571 1571 1571 1569 1569 1568 1568 1568 1567 1566 1566 1566 1565 1564 1564 1561 1555 1556 1560 1556 1553 1556 1551 1529 1508 1502 1501 1498 1498 1499 1497 1496 1496 1495 1494 1494 1493 1492 1491 1491 1489 1489 1488 1487 1487 1486 1485 1485 1484 1483 1483 1483 1482 1481 1481 1480 1479 1478 1477 1476
1569 1569 1568 1567 1567 1566 1566 1566 1565 1565 1565 1565 1564 1565 1567 1567 1569 1570 1570 1569 1570 1572 1572 1572 1572 1571 1571 1570 1570 1569 1568 1568 1567 1567 1567 1567 1567 1566 1565 1565 1565 1563 1558 1554 1557 1560 1557 1553 1552 1541 1517 1499 1496 1498 1496 1495 1495 1494 1493 1493 1491 1490 1490 1489 1487 1487 1486 1485 1484 1484 1483 1482 1482 1481 1480 1479 1479 1478 1478 1478 1477 1476 1476 1475 1474 1473 1472
1570 1569 1569 1568 1568 1567 1566 1566 1565 1565 1565 1564 1565 1568 1572 1572 1571 1571 1571 1570 1571 1572 1572 1571 1571 1570 1570 1569 1568 1568 1567 1567 1566 1566 1566 1566 1566 1565 1565 1567 1567 1561 1554 1554 1559 1561 1557 1552 1543 1524 1504 1494 1494 1495 1493 1492 1492 1491 1489 1489 1488 1486 1486 1484 1483 1482 1481 1480 1479 1479 1478 1477 1477 1476 1475 1475 1474 1474 1473 1473 1472 1472 1471 1471 1470 1469 1469
1571 1570 1569 1568 1568 1567 1567 1566 1566 1566 1567 1568 1567 1569 1572 1573 1574 1575 1573 1571 1571 1571 1570 1570 1570 1569 1568 1568 1568 1567 1567 1566 1566 1566 1566 1565 1565 1566 1567 1567 1564 1558 1555 1558 1560 1556 1551 1543 1528 1507 1493 1490 1492 1492 1490 1489 1489 1487 1486 1485 1484 1482 1481 1480 1479 1478 1477 1476 1475 1474 1473 1472 1472 1471 1470 1470 1469 1469 1469 1469 1468 1468 1467 1467 1466 1466 1465
1571 1570 1569 1568 1568 1568 1567 1567 1567 1567 1569 1572 1572 1572 1571 1572 1574 1575 1573 1570 1570 1570 1569 1569 1569 1568 1568 1568 1567 1566 1566 1566 1566 1566 1565 1565 1566 1566 1564 1560 1558 1557 1556 1557 1555 1552 1548 1535 1514 1496 1490 1490 1490 1489 1488 1487 1485 1484 1482 1481 1480 1479 1477 1476 1474 1473 1472 1471 1470 1469 1468 1467 1467 1466 1465 1465 1464 1464 1464 1464 1464 1463 1463 1463 1463 1462 1462
1571 1570 1569 1569 1569 1568 1566 1568 1570 1569 1570 1573 1574 1574 1572 1571 1572 1572 1571 1569 1568 1569 1568 1568 1568 1567 1567 1567 1566 1565 1566 1566 1566 1565 1566 1565 1565 1563 1560 1558 1558 1559 1557 1555 1551 1546 1536 1519 1501 1491 1490 1489 1487 1486 1485 1484 1482 1481 1479 1477 1476 1474 1472 1471 1470 1468 1467 1466 1465 1464 1463 1462 1461 1461 1460 1459 1459 1460 1459 1459 1460 1460 1459 1459 1459 1459 1459
1571 1571 1570 1569 1570 1570 1569 1571 1572 1571 1571 1572 1573 1572 1571 1570 1569 1569 1569 1568 1567 1567 1567 1566 1567 1567 1567 1566 1566 1565 1565 1565 1565 1566 1567 1565 1561 1558 1559 1559 1557 1554 1552 1549 1542 1529 1513 1499 1491 1489 1488 1486 1484 1484 1483 1480 1479 1477 1475 1472 1471 1470 1468 1466 1465 1463 1462 1461 1460 1459 1458 1457 1456 1456 1455 1455 1455 1454 1454 1455 1455 1455 1455 1455 1456 1455 1455
1572 1572 1571 1570 1571 1572 1572 1571 1571 1570 1570 1570 1569 1569 1569 1568 1567 1567 1567 1566 1566 1566 1566 1566 1566 1566 1565 1566 1565 1565 1565 1566 1565 1565 1566 1564 1560 1559 1561 1560 1554 1548 1543 1534 1522 1510 1500 1493 1488 1486 1485 1484 1482 1481 1479 1477 1476 1474 1471 1468 1467 1465 1463 1462 1460 1458 1456 1456 1454 1453 1452 1451 1451 1451 1450 1450 1449 1449 1449 1450 1450 1450 1450 1451 1451 1451 1451
1572 1572 1571 1570 1571 1571 1570 1570 1569 1569 1569 1568 1567 1567 1567 1566 1566 1565 1565 1565 1565 1565 1565 1565 1565 1565 1565 1565 1565 1564 1565 1565 1563 1562 1564 1564 1559 1556 1554 1551 1547 1544 1538 1525 1510 1499 1493 1489 1485 1483 1483 1482 1479 1477 1476 1474 1472 1469 1467 1465 1463 1460 1458 1456 1454 1453 1451 1450 1449 1447 1446 1446 1445 1445 1445 1445 1445 1445 1445 1445 1445 1445 1445 1445 1446 1446 1446
1572 1571 1570 1570 1570 1570 1570 1569 1569 1567 1566 1566 1566 1565 1565 1564 1564 1564 1564 1564 1565 1565 1565 1565 1565 1564 1564 1564 1564 1564 1564 1562 1560 1561 1564 1562 1556 1550 1547 1541 1533 1526 1520 1513 1503 1494 1488 1485 1483 1482 1481 1479 1476 1474 1473 1471 1468 1465 1463 1460 1458 1456 1454 1451 1449 1448 1447 1445 1443 1442 1441 1441 1440 1440 1440 1440 1440 1441 1441 1440 1440 1440 1440 1440 1440 1441 1441
1571 1570 1569 1569 1568 1568 1568 1568 1568 1566 1565 1564 1564 1564 1563 1563 1563 1563 1563 1564 1563 1564 1564 1564 1563 1563 1564 1564 1563 1561 1561 1561 1561 1560 1558 1553 1551 1550 1546 1535 1523 1512 1504 1499 1494 1489 1483 1482 1481 1480 1478 1476 1474 1472 1469 1467 1464 1461 1458 1456 1453 1451 1449 1446 1444 1443 1441 1440 1439 1438 1437 1436 1435 1434 1434 1435 1436 1437 1437 1436 1436 1435 1436 1436 1436 1436 1436
1569 1568 1568 1568 1567 1567 1567 1567 1566 1565 1564 1564 1563 1563 1563 1562 1562 1562 1562 1562 1563 1563 1564 1563 1563 1564 1564 1561 1557 1555 1555 1558 1561 1559 1552 1547 1548 1548 1538 1521 1509 1502 1495 1490 1487 1485 1482 1480 1479 1477 1474 1472 1470 1468 1466 1464 1461 1457 1455 1452 1450 1447 1445 1442 1440 1438 1436 1435 1434 1433 1432 1431 1430 1430 1431 1432 1432 1432 1431 1430 1430 1431 1432 1432 1431 1431 1432
1569 1568 1567 1567 1567 1567 1567 1566 1565 1565 1564 1563 1563 1562 1562 1562 1561 1561 1561 1561 1562 1562 1562 1562 1563 1563 1560 1556 1554 1555 1556 1556 1555 1551 1544 1539 1537 1533 1521 1507 1498 1494 1490 1486 1484 1483 1481 1478 1476 1474 1471 1468 1466 1464 1462 1459 1456 1453 1451 1449 1446 1443 1441 1438 1435 1434 1432 1431 1430 1428 1427 1427 1427 1427 1427 1427 1425 1423 1422 1423 1425 1426 1427 1427 1428 1428 1427